Galesburg, IL

7:30 PM CST on February 26, 2017 (GMT -0600)
Galesburg Municipal

Weather History for KGBG - June, 2013

Change the Weather History Date:

Sunday, June 2, 2013

  Actual Average Record
Temperature  
Mean Temperature 56 °F -  
Max Temperature 61 °F 76 °F 87 °F (1972)
Min Temperature 52 °F 56 °F 41 °F (1956)
Degree Days  
Heating Degree Days 8    
Growing Degree Days 6 (Base 50)    
Moisture  
Dew Point 51 °F    
Average Humidity 77    
Maximum Humidity 94    
Minimum Humidity 62    
Precipitation  
Precipitation 0.00 in - - ()
Sea Level Pressure  
Sea Level Pressure 29.96 in    
Wind  
Wind Speed 10 mph (WNW)    
Max Wind Speed 16 mph    
Max Gust Speed 21 mph    
Visibility 10 miles    
Events      
Averages and records for this station are not official NWS values.
T = Trace of Precipitation, MM = Missing Value Source: NWS Daily Summary

Daily Weather History Graph

Daily Weather History Graph

Search for Another Location

Airport or City:

Trip Planner

Search our weather history database for the weather conditions in past years. The results will help you decide how hot, cold, wet, or windy it might be!

Date:

Astronomy

Jun. 02, 2013 Rise Set
Actual Time 5:31 AM CDT 8:28 PM CDT
Civil Twilight 4:58 AM CDT 9:01 PM CDT
Nautical Twilight 4:17 AM CDT 9:43 PM CDT
Astronomical Twilight 3:28 AM CDT 10:31 PM CDT
Moon 2:00 AM CDT (6/2) 2:57 PM CDT (6/2)
Length of Visible Light 16h 02m
Length of Day
14h 56m
Waning Crescent, 30% of the Moon is Illuminated
Jun 2
Waning Crescent
Jun 8
New
Jun 16
First Quarter
Jun 23
Full
Jun 29
Last Quarter

Hourly Weather History & Observations

Time (CDT) Temp. Dew Point Humidity Pressure Visibility Wind Dir Wind Speed Gust Speed Precip Events Conditions
12:15 AM 61.7 °F 56.5 °F 83% 29.82 in 10.0 mi WSW 10.4 mph - N/A   Overcast
12:35 AM 61.7 °F 56.5 °F 83% 29.83 in 10.0 mi WSW 8.1 mph - N/A   Overcast
12:55 AM 61.7 °F 56.7 °F 84% 29.83 in 10.0 mi WSW 10.4 mph - N/A   Overcast
1:15 AM 61.7 °F 57.2 °F 85% 29.83 in 10.0 mi West 11.5 mph 18.4 mph N/A   Overcast
1:35 AM 61.7 °F 57.4 °F 86% 29.82 in 10.0 mi West 10.4 mph - N/A   Overcast
1:55 AM 61.7 °F 57.4 °F 86% 29.83 in 10.0 mi West 13.8 mph - N/A   Overcast
2:15 AM 61.7 °F 57.2 °F 85% 29.82 in 10.0 mi West 10.4 mph - N/A   Overcast
2:35 AM 61.7 °F 57.0 °F 85% 29.83 in 10.0 mi West 13.8 mph - N/A   Overcast
2:55 AM 61.0 °F 56.5 °F 85% 29.83 in 10.0 mi West 12.7 mph - N/A   Overcast
3:15 AM 60.8 °F 55.9 °F 84% 29.83 in 10.0 mi West 15.0 mph - N/A   Overcast
3:35 AM 60.3 °F 55.6 °F 85% 29.84 in 10.0 mi West 12.7 mph - N/A   Overcast
3:55 AM 59.5 °F 55.6 °F 87% 29.85 in 10.0 mi West 12.7 mph - N/A   Overcast
4:15 AM 59.4 °F 55.6 °F 87% 29.86 in 10.0 mi West 12.7 mph - N/A   Overcast
4:35 AM 59.4 °F 55.4 °F 87% 29.87 in 10.0 mi West 11.5 mph - N/A   Overcast
4:55 AM 59.4 °F 55.4 °F 87% 29.88 in 10.0 mi West 11.5 mph - N/A   Overcast
5:15 AM 59.5 °F 55.4 °F 86% 29.89 in 10.0 mi West 11.5 mph - N/A   Overcast
5:35 AM 59.7 °F 55.4 °F 86% 29.89 in 10.0 mi West 11.5 mph 16.1 mph N/A   Overcast
5:55 AM 59.4 °F 54.5 °F 84% 29.90 in 10.0 mi WNW 11.5 mph - N/A   Overcast
6:15 AM 59.4 °F 54.5 °F 84% 29.90 in 10.0 mi WNW 10.4 mph - N/A   Overcast
6:35 AM 59.2 °F 52.7 °F 79% 29.91 in 10.0 mi NW 15.0 mph - N/A   Overcast
6:55 AM 58.5 °F 51.8 °F 79% 29.92 in 10.0 mi NW 12.7 mph - N/A   Overcast
7:15 AM 58.1 °F 52.0 °F 80% 29.93 in 10.0 mi NW 11.5 mph - N/A   Overcast
7:35 AM 57.7 °F 51.8 °F 81% 29.93 in 10.0 mi NW 12.7 mph - N/A   Overcast
7:55 AM 57.6 °F 51.1 °F 79% 29.94 in 10.0 mi NW 10.4 mph - N/A   Overcast
8:15 AM 57.6 °F 51.1 °F 79% 29.95 in 10.0 mi NW 11.5 mph - N/A   Overcast
8:35 AM 57.4 °F 50.9 °F 79% 29.96 in 10.0 mi NNW 13.8 mph 17.3 mph N/A   Overcast
8:55 AM 57.6 °F 50.9 °F 78% 29.95 in 10.0 mi NNW 16.1 mph 20.7 mph N/A   Overcast
9:15 AM 57.2 °F 50.5 °F 78% 29.96 in 10.0 mi NNW 13.8 mph 19.6 mph N/A   Overcast
9:35 AM 56.7 °F 50.5 °F 80% 29.96 in 10.0 mi NNW 15.0 mph - N/A   Overcast
9:55 AM 56.3 °F 50.2 °F 80% 29.96 in 10.0 mi NW 12.7 mph - N/A   Overcast
10:15 AM 57.0 °F 50.2 °F 78% 29.97 in 10.0 mi NNW 12.7 mph 16.1 mph N/A   Overcast
10:35 AM 56.8 °F 49.8 °F 77% 29.98 in 10.0 mi NNW 11.5 mph - N/A   Overcast
10:55 AM 57.4 °F 49.6 °F 75% 29.99 in 10.0 mi NNW 11.5 mph - N/A   Overcast
11:15 AM 58.3 °F 49.8 °F 73% 29.99 in 10.0 mi NNW 9.2 mph - N/A   Overcast
11:35 AM 58.3 °F 49.8 °F 73% 29.99 in 10.0 mi NW 9.2 mph - N/A   Overcast
11:55 AM 58.5 °F 50.4 °F 74% 30.00 in 10.0 mi WNW 6.9 mph - N/A   Overcast
12:15 PM 57.4 °F 50.4 °F 77% 30.00 in 10.0 mi NNW 12.7 mph - N/A   Overcast
12:35 PM 57.2 °F 50.0 °F 77% 30.01 in 10.0 mi NW 9.2 mph - N/A   Overcast
12:55 PM 57.7 °F 49.5 °F 74% 30.01 in 10.0 mi NW 8.1 mph - N/A   Overcast
1:15 PM 58.6 °F 49.6 °F 72% 30.01 in 10.0 mi WNW 6.9 mph 16.1 mph N/A   Overcast
1:35 PM 58.3 °F 49.5 °F 72% 30.01 in 10.0 mi WNW 10.4 mph - N/A   Overcast
1:55 PM 60.4 °F 49.1 °F 66% 30.01 in 10.0 mi NW 9.2 mph - N/A   Overcast
2:15 PM 59.5 °F 48.4 °F 67% 30.01 in 10.0 mi NW 8.1 mph - N/A   Overcast
2:35 PM 60.4 °F 48.0 °F 64% 30.02 in 10.0 mi WNW 8.1 mph - N/A   Overcast
2:55 PM 60.1 °F 48.0 °F 64% 30.02 in 10.0 mi WNW 8.1 mph - N/A   Overcast
3:15 PM 59.9 °F 48.0 °F 65% 30.02 in 10.0 mi NW 9.2 mph - N/A   Overcast
3:35 PM 59.9 °F 48.0 °F 65% 30.02 in 10.0 mi NW 9.2 mph - N/A   Overcast
3:55 PM 59.9 °F 47.7 °F 64% 30.02 in 10.0 mi NW 10.4 mph - N/A   Overcast
4:15 PM 59.4 °F 47.3 °F 64% 30.02 in 10.0 mi WNW 9.2 mph - N/A   Overcast
4:35 PM 59.9 °F 47.8 °F 64% 30.02 in 10.0 mi West 9.2 mph - N/A   Overcast
4:55 PM 59.9 °F 48.4 °F 66% 30.02 in 10.0 mi West 9.2 mph - N/A   Overcast
5:15 PM 59.5 °F 47.8 °F 65% 30.02 in 10.0 mi WNW 10.4 mph - N/A   Overcast
5:35 PM 59.5 °F 46.9 °F 63% 30.02 in 10.0 mi NW 5.8 mph - N/A   Overcast
5:55 PM 59.5 °F 46.8 °F 63% 30.01 in 10.0 mi NW 5.8 mph - N/A   Overcast
6:15 PM 59.2 °F 46.0 °F 62% 30.01 in 10.0 mi NW 4.6 mph - N/A   Overcast
6:35 PM 59.2 °F 47.1 °F 64% 30.01 in 10.0 mi NW 4.6 mph - N/A   Overcast
6:55 PM 59.2 °F 48.0 °F 66% 30.02 in 10.0 mi NW 3.5 mph - N/A   Overcast
7:15 PM 59.2 °F 48.0 °F 66% 30.02 in 10.0 mi Calm Calm - N/A   Overcast
7:35 PM 59.0 °F 45.9 °F 62% 30.02 in 10.0 mi NNW 3.5 mph - N/A   Overcast
7:55 PM 58.3 °F 45.9 °F 63% 30.02 in 10.0 mi North 3.5 mph - N/A   Overcast
8:15 PM 57.2 °F 47.5 °F 70% 30.02 in 10.0 mi NNW 3.5 mph - N/A   Overcast
8:35 PM 57.0 °F 47.7 °F 71% 30.02 in 10.0 mi Calm Calm - N/A   Overcast
8:55 PM 54.1 °F 50.0 °F 86% 30.02 in 10.0 mi Calm Calm - N/A   Mostly Cloudy
9:15 PM 54.0 °F 49.6 °F 85% 30.02 in 10.0 mi Calm Calm - N/A   Overcast
9:35 PM 54.0 °F 50.4 °F 88% 30.03 in 10.0 mi Calm Calm - N/A   Mostly Cloudy
9:55 PM 53.1 °F 51.1 °F 93% 30.03 in 10.0 mi Calm Calm - N/A   Scattered Clouds
10:15 PM 52.5 °F 50.5 °F 93% 30.03 in 10.0 mi Calm Calm - N/A   Mostly Cloudy
10:35 PM 52.7 °F 50.9 °F 94% 30.04 in 10.0 mi ENE 3.5 mph - N/A   Overcast
10:55 PM 52.9 °F 48.4 °F 85% 30.04 in 10.0 mi Calm Calm - N/A   Scattered Clouds
11:15 PM 52.7 °F 48.6 °F 86% 30.04 in 10.0 mi Calm Calm - N/A   Mostly Cloudy
11:35 PM 54.1 °F 48.4 °F 81% 30.05 in 10.0 mi Calm Calm - N/A   Overcast
11:55 PM 54.1 °F 48.4 °F 81% 30.05 in 10.0 mi Calm Calm - N/A   Overcast